Find Beidou DW 52

NORAD ID: 44864 Int'l Des: 2019-090 Owner: CNSA Country: CN Constellation: BeiDou operational
MEOCIRCULAR

リアルタイム位置

3D地球を読み込み中...

Beidou DW 52について

説明を読み込み中...

次回通過

Passes for default location (London). Set your location on the main map for personalized predictions.

高度履歴

Loading altitude history...

軌道要素

1 44864U 19090A 26120.35997937 -.00000069 00000-0 00000+0 0 9993
2 44864 56.5196 64.3701 0019637 295.7809 212.4213 1.86231371 43348
Epoch: Apr 30, 2026 • Age: 47 hours

現在のステータス

高度 21518.1 km
速度 3.78 km/s
衛星直下点 13.18°N, 101.36°E
打ち上げ日 Dec 16, 2019
運用期間 6.3 years
タイプ navigation

打ち上げグループ

Unknown Vehicle • BeiDou Launch 42 • 2 satellites

技術仕様

分類 Payload
質量 1014.00 kg
乾燥質量 850.00 kg
総質量 1014.00 kg
長さ 2.20 m
直径 1.70 m
スパン 10.00 m
形状 Box + 2 Pan
製造者 CAST
バスタイプ BD-3M
フェーズステータス In Orbit
所有者/国 CNSA/CN

Most Searched